Location: Hac?musa Deresi
(39.1694°N, 32.2508°E)
Time: 09:31:50
(UTC+00:00)

SL-08 R/B - Pass Details

Date: 22 April 2026
Orbit: 956 x 1010 km, 82.9° (Epoch: 12 May)

Event Time Altitude Azimuth Distance (km) Brightness Sun altitude
Rises 18:42:03 0° 352° (N) 3,662 8.2 -22.5°
Reaches altitude 10° 18:44:33 10° 353° (N) 2,717 7.4 -22.8°
Maximum altitude 18:50:47 89° 263° (W) 984 4.4 -23.8°
Enters shadow 18:53:09 41° 176° (S) 1,378 4.9 -24.1°
